Location: Haram ta Haram Freeway
(35.0583°N, 51.4202°E)
Time: 18:10:16
(UTC+03:30)

IRIDIUM 33 DEB - Visible Passes

Search period start: 28 November 2021 00:00
Search period end: 08 December 2021 00:00
Orbit: 666 x 818 km, 86.4° (Epoch: 26 November)

Date Brightness Start Highest point End Pass type
(mag) Time Alt. Az. Time Alt. Az. Time Alt. Az.
28 Nov ? 19:54:06 10° SSW 19:55:08 15° SSW 19:55:08 15° SSW visible
29 Nov ? 19:09:50 10° S 19:12:27 30° S 19:12:27 30° S visible
30 Nov ? 05:41:09 10° NE 05:43:37 14° ENE 05:46:02 10° ESE visible
30 Nov ? 18:26:41 10° SSE 18:29:47 27° ESE 18:29:47 27° ESE visible
30 Nov ? 20:06:54 10° SW 20:09:36 22° WSW 20:09:36 22° WSW visible
01 Dec ? 17:45:20 10° ESE 17:47:10 13° E 17:47:10 13° E visible
01 Dec ? 19:21:52 10° SSW 19:26:59 61° W 19:26:59 61° W visible
02 Dec ? 05:51:52 10° NNE 05:55:46 24° E 05:59:33 10° SE visible
02 Dec ? 18:38:00 10° SSE 18:43:17 55° E 18:44:23 46° NE visible
02 Dec ? 20:20:28 10° WSW 20:23:32 15° WNW 20:24:12 15° WNW visible
03 Dec ? 17:55:23 10° SE 17:59:32 23° E 18:01:48 18° NE visible
03 Dec ? 19:34:17 10° SSW 19:39:14 36° W 19:41:36 24° NW visible
04 Dec ? 06:03:12 10° NNE 06:07:47 42° E 06:12:10 10° SSE visible
04 Dec ? 18:49:43 10° S 18:55:09 87° W 18:59:01 19° N visible
05 Dec ? 05:20:28 10° NE 05:23:27 16° ENE 05:26:23 10° ESE visible
05 Dec ? 18:06:17 10° SSE 18:11:15 38° E 18:16:08 10° NNE visible
05 Dec ? 19:47:13 10° SW 19:51:16 21° W 19:55:17 10° NNW visible
06 Dec ? 06:14:52 10° N 06:19:39 79° E 06:24:15 10° S visible
06 Dec ? 17:24:22 10° ESE 17:27:33 16° E 17:30:41 10° NE visible
06 Dec ? 19:01:48 10° SSW 19:07:02 51° W 19:12:11 10° N visible
07 Dec ? 05:31:21 10° NNE 05:35:27 28° E 05:39:26 10° SE visible
07 Dec ? 18:17:40 10° S 18:23:00 66° E 18:28:13 10° N visible
07 Dec ? 20:01:14 10° W 20:03:21 12° WNW 20:05:27 10° NW visible
